sat.trackr.live / text

‹ back to catalog

STARLINK-34759

NORAD 65096 · 2025-167U

PAYLOAD ACTIVE UNKNOWN

§ Identity

Operator
Country
US
Launch date
2025-08-04
Launch site
AFETR
Launch vehicle
Mass (kg)
RCS (m²)

Purposes: comms

External: N2YO · Heavens-Above · Gunter

§ Orbital elements

Epoch: 2026-05-24T21:44:01.095072Z

Period
93.37 min
Inclination
53.1593°
Eccentricity
0.0001075
Mean motion
15.42179791 rev/d
Perigee alt
438.9 km
Apogee alt
440.4 km
Semi-major
6,817.8 km
B*
4.9127e-4
RAAN
30.1665°
Arg perigee
79.3256°
Mean anomaly
280.7870°
Rev number
4,518

§ Raw data

STARLINK-347591 65096U 25167U   26144.90556823  .00021039  00000+0  49127-3 0  99922 65096  53.1593  30.1665 0001075  79.3256 280.7870 15.42179791 45186

JSON: /api/v1/satellites/65096 · /tle

For live sub-satellite position, see the globe view (requires WebGL).

§ Visibility from observer

Set your observer location to see the next 7 days of passes ≥ 10°. The values pass through the URL so the page stays shareable.

No JS? Fill the form by hand. The geolocation button needs JavaScript.